Weather History for Burns, OR

Change the Weather History Date:

Friday, February 21, 2014

  Actual Average Record
Temperature  
Mean Temperature 38 °F 30 °F  
Max Temperature 48 °F 41 °F 63 °F (1995)
Min Temperature 28 °F 20 °F -4 °F (1952)
Degree Days  
Heating Degree Days 27 35  
Month to date heating degree days 705 781  
Since 1 July heating degree days 5115 5294  
Cooling Degree Days 0 0  
Month to date cooling degree days 0 0  
Year to date cooling degree days 0 0  
Moisture  
Dew Point 24 °F    
Average Humidity 63    
Maximum Humidity 92    
Minimum Humidity 34    
Precipitation  
Precipitation 0.00 in 0.04 in 0.42 in (1992)
Month to date precipitation 1.57 0.75  
Year to date precipitation 2.07 1.94  
Sea Level Pressure  
Sea Level Pressure 30.15 in    
Wind  
Wind Speed 12 mph (SW)    
Max Wind Speed 21 mph    
Max Gust Speed 26 mph    
Visibility 10 miles    
Events      
T = Trace of Precipitation, MM = Missing Value Source: NWS Daily Summary

Daily Weather History Graph

Daily Weather History Graph

Search for Another Location

Airport:

Trip Planner

Search our weather history database for the weather conditions in past years. The results will help you decide how hot, cold, wet, or windy it might be!

Date:

Astronomy

Feb. 21, 2014 Rise Set
Actual Time 6:45 AM PST 5:34 PM PST
Civil Twilight 6:16 AM PST 6:03 PM PST
Nautical Twilight 5:42 AM PST 6:36 PM PST
Astronomical Twilight 5:09 AM PST 7:09 PM PST
Moon No Moon Rise 10:00 AM PST (2/21)
Length of Visible Light 11h 47m
Length of Day
10h 49m
Waning Gibbous, 59% of the Moon is Illuminated
Feb 21
Waning Gibbous
Feb 22
Last Quarter
Mar 1
New
Mar 8
First Quarter
Mar 16
Full

Hourly Weather History & Observations

Time (PST) Temp. Windchill Dew Point Humidity Pressure Visibility Wind Dir Wind Speed Gust Speed Precip Events Conditions
12:53 AM 34.0 °F 24.6 °F 28.9 °F 82% 30.18 in 10.0 mi SSW 13.8 mph - N/A   Mostly Cloudy
1:53 AM 32.0 °F 24.2 °F 28.0 °F 85% 30.20 in 10.0 mi SW 9.2 mph - N/A   Mostly Cloudy
2:53 AM 30.9 °F 25.2 °F 28.0 °F 89% 30.21 in 10.0 mi SSW 5.8 mph - N/A   Mostly Cloudy
3:53 AM 30.0 °F 21.1 °F 27.0 °F 88% 30.21 in 10.0 mi SW 10.4 mph - N/A   Clear
4:53 AM 28.9 °F 20.4 °F 27.0 °F 92% 30.21 in 10.0 mi SW 9.2 mph - N/A   Clear
5:53 AM 28.9 °F 21.1 °F 26.1 °F 89% 30.21 in 10.0 mi WSW 8.1 mph - N/A   Clear
6:53 AM 30.0 °F 21.1 °F 26.1 °F 85% 30.21 in 10.0 mi SW 10.4 mph - N/A   Clear
7:53 AM 32.0 °F 24.8 °F 28.0 °F 85% 30.21 in 10.0 mi SSW 8.1 mph - N/A   Clear
8:53 AM 36.0 °F 29.0 °F 28.9 °F 76% 30.19 in 10.0 mi SW 9.2 mph - N/A   Clear
9:53 AM 39.0 °F 30.6 °F 28.0 °F 65% 30.19 in 10.0 mi WSW 15.0 mph - N/A   Clear
10:53 AM 39.9 °F 32.1 °F 28.0 °F 63% 30.19 in 10.0 mi WSW 13.8 mph - N/A   Clear
11:53 AM 44.1 °F 37.4 °F 27.0 °F 51% 30.16 in 10.0 mi WSW 13.8 mph - N/A   Clear
12:53 PM 45.0 °F 37.9 °F 21.9 °F 40% 30.13 in 10.0 mi WSW 16.1 mph - N/A   Clear
1:53 PM 46.9 °F - 19.0 °F 33% 30.11 in 10.0 mi West 18.4 mph 24.2 mph N/A   Clear
2:53 PM 46.9 °F - 23.0 °F 39% 30.10 in 10.0 mi West 15.0 mph 24.2 mph N/A   Clear
3:53 PM 46.9 °F - 19.0 °F 33% 30.09 in 10.0 mi West 17.3 mph 24.2 mph N/A   Clear
4:53 PM 44.1 °F 36.8 °F 21.0 °F 40% 30.09 in 10.0 mi WSW 16.1 mph - N/A   Clear
5:53 PM 39.0 °F 31.8 °F 23.0 °F 53% 30.10 in 10.0 mi WSW 11.5 mph - N/A   Clear
6:53 PM 37.0 °F 30.4 °F 23.0 °F 57% 30.10 in 10.0 mi WSW 9.2 mph - N/A   Clear
7:53 PM 35.1 °F 26.9 °F 21.0 °F 57% 30.10 in 10.0 mi West 11.5 mph - N/A   Clear
8:53 PM 34.0 °F 25.5 °F 21.9 °F 61% 30.09 in 10.0 mi WSW 11.5 mph - N/A   Clear
9:53 PM 35.1 °F 25.5 °F 21.9 °F 59% 30.08 in 10.0 mi West 15.0 mph - N/A   Clear
10:53 PM 30.0 °F 24.1 °F 21.9 °F 72% 30.10 in 10.0 mi South 5.8 mph - N/A   Clear
11:53 PM 30.9 °F 22.2 °F 21.9 °F 69% 30.08 in 10.0 mi SW 10.4 mph - N/A   Clear